• MPC Preparation (Info)

  • MPEC 2014-D04 : 2014 CX14

    The following Minor Planet Electronic Circular may be linked-to from your own Web pages, but must not otherwise be redistributed electronically.

    A form allowing access to any MPEC is at the bottom of this page.


    Read MPEC 2014-D03 Read MPEC 2014-D05


    M.P.E.C. 2014-D04                                Issued 2014 Feb. 19, 13:42 UT
    
         The Minor Planet Electronic Circulars contain information on unusual
             minor planets and routine data on comets.  They are published
       on behalf of Commission 20 of the International Astronomical Union by the
              Minor Planet Center, Smithsonian Astrophysical Observatory,
                              Cambridge, MA 02138, U.S.A.
    
                 Prepared using the Tamkin Foundation Computer Network
    
                                  MPC@CFA.HARVARD.EDU
                URL https://www.minorplanetcenter.net/    ISSN 1523-6714
    
                                       2014 CX14
    
    Observations:
         K14C14X* C2014 02 12.15651 04 40 25.78 +20 48 45.9          20.2 VqED004G96
         K14C14X  C2014 02 12.16199 04 40 26.72 +20 48 51.0          20.9 VqED004G96
         K14C14X  C2014 02 12.16709 04 40 27.54 +20 48 55.1          19.9 VqED004G96
         K14C14X  C2014 02 12.17218 04 40 28.46 +20 48 59.7          20.7 VqED004G96
         K14C14X  C2014 02 12.19035 04 40 31.57 +20 49 14.7          20.8 VqED004G96
         K14C14X  C2014 02 12.19614 04 40 32.60 +20 49 19.3          20.3 VqED004G96
         K14C14X  C2014 02 12.20890 04 40 34.77 +20 49 29.4                qED004G96
         K14C14X  C2014 02 12.27641 04 40 46.58 +20 50 25.7                qED004G96
         K14C14X  C2014 02 12.28222 04 40 47.50 +20 50 30.1                qED004G96
         K14C14X  C2014 02 12.28418 04 40 47.93 +20 50 32.2          20.2 VqED004G96
         K14C14X  C2014 02 18.22853 04 59 53.58 +22 13 26.0          20.9 RoED004926
         K14C14X  C2014 02 18.24216 04 59 56.31 +22 13 35.9          20.6 RoED004926
         K14C14X  C2014 02 18.25331 04 59 58.53 +22 13 44.8          20.4 RoED004926
         K14C14X KC2014 02 19.22263 05 03 19.49 +22 26 39.6          20.3 RoED004291
         K14C14X KC2014 02 19.22414 05 03 19.78 +22 26 40.6          20.3 RoED004291
         K14C14X  C2014 02 19.26791 05 03 28.70 +22 27 13.7          20.5 VqED004G96
         K14C14X  C2014 02 19.26840 05 03 28.79 +22 27 13.3          20.4 VqED004G96
         K14C14X  C2014 02 19.26890 05 03 28.86 +22 27 14.1          20.7 VqED004G96
         K14C14X  C2014 02 19.26939 05 03 28.97 +22 27 14.7          20.4 VqED004G96
    
    Observer details:
    291 LPL/Spacewatch II.  Observer T. H. Bressi.  1.8-m f/2.7 reflector + CCD.
    926 Tenagra II Observatory.  Observers M. Schwartz, P. R. Holvorcem.  0.81-m
        f/7 Ritchey-Chretien + CCD.
    G96 Mt. Lemmon Survey.  Observers R. E. Hill, A. R. Gibbs.  Measurers
        E. J. Christensen, A. R. Gibbs, A. D. Grauer, R. E. Hill, J. A. Johnson,
        R. A. Kowalski, S. M. Larson, F. C. Shelly.  1.5-m reflector + CCD.
    
    Orbital elements:
    2014 CX14                                                Earth MOID = 0.1711 AU
    Epoch 2013 Nov. 4.0 TT = JDT 2456600.5                  MPC
    M 322.50254              (2000.0)            P               Q
    n   0.33765663     Peri.    1.21992     -0.71168425     -0.70161807
    a   2.0424552      Node   134.15369     +0.64411472     -0.67170554
    e   0.4330532      Incl.    2.81050     +0.28039571     -0.23778929
    P   2.92           H   20.4           G   0.15           U   9
    Residuals in seconds of arc
    140212 G96  0.1+  0.1-    140212 G96  0.7+  0.2-    140219 291  0.0   0.1-
    140212 G96  0.1+  0.4+    140212 G96  0.7-  0.5-    140219 G96  0.3+  0.2+
    140212 G96  0.6-  0.2+    140212 G96  0.5+  0.0     140219 G96  0.1+  0.6-
    140212 G96  0.0   0.5+    140218 926  0.2-  0.5+    140219 G96  0.3-  0.1-
    140212 G96  0.1-  0.2+    140218 926  0.1+  0.1-    140219 G96  0.2-  0.1+
    140212 G96  0.4+  0.0     140218 926  0.0   0.2+
    140212 G96  0.1-  0.6-    140219 291  0.2+  0.1+
    
    Ephemeris:
    2014 CX14                a,e,i = 2.04, 0.43, 3                   q = 1.1580
    Date    TT    R. A. (2000) Decl.     Delta      r     Elong.  Phase     V
    2014 01 20    03 51 29.8 +15 29 12   0.3731  1.2112   119.3    45.1    20.4
    ...
    2014 02 04    04 18 29.4 +18 50 37   0.3763  1.1751   111.1    51.5    20.5
    ...
    2014 02 12    04 39 58.0 +20 46 35   0.3797  1.1638   108.3    53.6    20.6
    ...
    2014 02 18    04 59 07.7 +22 10 26   0.3834  1.1592   106.9    54.7    20.6
    2014 02 19    05 02 33.8 +22 23 48   0.3842  1.1588   106.7    54.8    20.6
    2014 02 20    05 06 03.9 +22 36 56   0.3850  1.1584   106.5    54.9    20.6
    ...
    2014 02 26    05 28 25.9 +23 49 36   0.3907  1.1584   105.7    55.4    20.7
    ...
    2014 03 06    06 01 29.6 +25 04 14   0.4016  1.1637   105.2    55.4    20.8
    ...
    2014 03 21    07 09 51.2 +25 46 46   0.4355  1.1894   105.6    53.8    20.9
    
    A. U. Tomatic                (C) Copyright 2014 MPC           M.P.E.C. 2014-D04
    

    Read MPEC 2014-D03 Read MPEC 2014-D05


    MPEC number:

    Enter an MPEC number in one of the following forms:

    • 1997-B01 (the full form)
    • J97B01 (the packed version of the full form)
    • B01 (the abbreviated form)